Tracking 20711 objects as of 30-May-2020
HD Live streaming from Space Station
objects crossing your sky now

FENGYUN 1C DEB

Track FENGYUN 1C DEB now!
10-day predictions


NORAD ID: 35244
Int'l Code: 1999-025DRC
Perigee: 837.0 km
Apogee: 946.6 km
Inclination: 99.1 °
Period: 102.7 minutes
Semi major axis: 7262 km
RCS: 0.0028 m2 (small)
Launch date: May 10, 1999
Source: People's Republic of China (PRC)
Launch site: Taiyaun Space Center, China (TSC)

Note: This is SATELLITE DEBRIS
aabbcc
Your satellite tracking list
Your tracking list is empty




NASA's NSSDC Master Catalog

Two Line Element Set (TLE):
1 35244U 99025DRC 20143.04905838 +.00000484 +00000-0 +33367-3 0  9991
2 35244 099.0611 185.7875 0075423 055.4479 305.3775 14.02645768373266
Source of the keplerian elements: AFSPC